FW9086 Weather Reports


Display with metric or nautical units.
time (UTC)temp
F
wind
direction
speed
MPH
gust
MPH
rain 1hr
in
rain 24hr
in
rain mn
in
humidity
%
barometer
mb
20260902002909 84 156 0.0 0.0 0.00 0.00 0.00 77 1014.1
20260902002409 84 156 0.0 0.0 0.00 0.00 0.00 77 1014.1
20260902001903 84 156 0.0 0.0 0.00 0.00 0.00 76 1014.1
20260902001359 84 156 0.0 0.0 0.00 0.00 0.00 77 1014.0
20260902000859 85 157 0.0 0.0 0.00 0.00 0.00 77 1014.3
20260902000354 85 156 0.0 0.0 0.00 0.00 0.00 77 1014.2
20260901235849 85 157 0.0 0.0 0.00 0.00 0.00 76 1014.2
20260901235349 85 157 0.0 0.0 0.00 0.00 0.00 76 1014.1
20260901234844 85 157 0.0 0.0 0.00 0.00 0.00 75 1014.2
20260901234338 86 157 0.0 0.0 0.00 0.00 0.00 74 1014.2
20260901233833 86 157 0.0 0.0 0.00 0.00 0.00 74 1014.2
20260901233329 86 156 0.0 0.0 0.00 0.00 0.00 74 1014.0
20260901232824 86 156 0.0 0.0 0.00 0.00 0.00 73 1014.3
20260901232319 86 156 0.0 0.0 0.00 0.00 0.00 73 1014.2
20260901231815 86 157 0.0 0.0 0.00 0.00 0.00 73 1014.3
20260901231311 86 157 0.0 0.0 0.00 0.00 0.00 73 1014.2
20260901230808 87 157 0.0 0.0 0.00 0.00 0.00 72 1014.1
20260901230306 87 159 0.0 0.0 0.00 0.00 0.00 71 1014.3
20260901225803 87 153 0.0 0.0 0.00 0.00 0.00 72 1014.4
20260901225302 87 159 0.0 0.0 0.00 0.00 0.00 73 1014.2
20260901224758 87 161 0.0 0.0 0.00 0.00 0.00 72 1014.1
20260901224254 88 163 0.0 0.0 0.00 0.00 0.00 73 1014.1
20260901223749 88 162 0.0 0.0 0.00 0.00 0.00 72 1014.3
20260901223244 88 162 0.0 0.0 0.00 0.00 0.00 71 1014.3
20260901222740 88 166 0.0 0.0 0.00 0.00 0.00 74 1014.4
20260901222236 89 180 0.0 1.0 0.00 0.00 0.00 73 1014.2
20260901221732 89 146 0.0 0.0 0.00 0.00 0.00 68 1014.3
20260901221227 89 159 0.0 0.0 0.00 0.00 0.00 69 1014.0
20260901220726 90 154 0.0 0.0 0.00 0.00 0.00 69 1014.0
20260901220221 90 213 1.0 1.0 0.00 0.00 0.00 67 1014.0
20260901215720 90 165 0.0 0.0 0.00 0.00 0.00 65 1014.0
20260901215214 91 168 1.0 1.0 0.00 0.00 0.00 69 1014.2
20260901214712 91 176 0.0 0.0 0.00 0.00 0.00 65 1014.0
20260901214206 92 170 0.0 0.0 0.00 0.00 0.00 66 1013.9
20260901213706 93 180 1.0 2.0 0.00 0.00 0.00 64 1013.8
20260901213201 94 178 0.0 0.0 0.00 0.00 0.00 64 1014.1
20260901212701 94 195 1.0 1.0 0.00 0.00 0.00 60 1014.2
20260901212157 95 185 1.0 1.0 0.00 0.00 0.00 59 1014.0
20260901211656 96 300 3.0 3.0 0.00 0.00 0.00 59 1014.1
20260901211153 95 160 0.0 0.0 0.00 0.00 0.00 61 1014.2
20260901210648 95 174 0.0 1.0 0.00 0.00 0.00 63 1014.2
20260901210144 95 173 1.0 1.0 0.00 0.00 0.00 63 1014.2
20260901205640 94 231 3.0 3.0 0.00 0.00 0.00 60 1014.2
20260901205140 94 184 1.0 2.0 0.00 0.00 0.00 65 1014.2
20260901204636 94 235 3.0 3.0 0.00 0.00 0.00 63 1014.2
20260901204130 95 180 0.0 1.0 0.00 0.00 0.00 64 1014.2
20260901203626 95 141 1.0 1.0 0.00 0.00 0.00 59 1014.1
20260901203125 95 178 0.0 0.0 0.00 0.00 0.00 63 1014.0
20260901202620 95 241 2.0 2.0 0.00 0.00 0.00 60 1014.0
20260901202116 95 279 2.0 2.0 0.00 0.00 0.00 63 1014.0
20260901201612 95 178 0.0 0.0 0.00 0.00 0.00 60 1014.2
20260901201111 94 262 2.0 2.0 0.00 0.00 0.00 61 1014.1
20260901200610 94 255 3.0 5.0 0.00 0.00 0.00 61 1014.4
20260901200105 94 187 0.0 0.0 0.00 0.00 0.00 63 1014.2
20260901195603 94 206 1.0 1.0 0.00 0.00 0.00 62 1014.3
20260901195103 93 243 3.0 3.0 0.00 0.00 0.00 60 1014.0
20260901194558 93 228 2.0 3.0 0.00 0.00 0.00 66 1014.3
20260901194054 93 235 1.0 2.0 0.00 0.00 0.00 64 1014.5
20260901193548 93 205 2.0 3.0 0.00 0.00 0.00 61 1014.4
20260901193043 93 183 1.0 2.0 0.00 0.00 0.00 63 1014.4
20260901192538 93 231 2.0 2.0 0.00 0.00 0.00 60 1014.4
20260901192034 93 237 2.0 2.0 0.00 0.00 0.00 63 1014.8
20260901191530 93 232 2.0 2.0 0.00 0.00 0.00 63 1014.5
20260901191026 92 228 3.0 3.0 0.00 0.00 0.00 64 1014.7
20260901190521 92 183 0.0 1.0 0.00 0.00 0.00 65 1014.7
20260901190020 92 237 1.0 2.0 0.00 0.00 0.00 62 1014.8
20260901185518 92 177 1.0 1.0 0.00 0.00 0.00 64 1014.6
20260901185018 92 198 2.0 2.0 0.00 0.00 0.00 64 1014.7
20260901184513 92 225 3.0 5.0 0.00 0.00 0.00 65 1014.9
20260901184009 92 237 3.0 3.0 0.00 0.00 0.00 64 1014.9
20260901183503 92 186 1.0 2.0 0.00 0.00 0.00 64 1014.9
20260901182958 91 171 1.0 1.0 0.00 0.00 0.00 66 1014.9
20260901182449 91 193 1.0 1.0 0.00 0.00 0.00 66 1014.6
20260901181948 91 211 1.0 1.0 0.00 0.00 0.00 67 1014.8
20260901181443 91 196 1.0 1.0 0.00 0.00 0.00 65 1015.0
20260901180942 92 181 1.0 1.0 0.00 0.00 0.00 64 1014.9
20260901180436 92 229 2.0 2.0 0.00 0.00 0.00 62 1014.9
20260901175934 92 235 2.0 2.0 0.00 0.00 0.00 66 1015.0
20260901175429 92 252 3.0 5.0 0.00 0.00 0.00 61 1015.3
20260901174924 92 189 1.0 1.0 0.00 0.00 0.00 63 1015.1
20260901174420 91 236 2.0 3.0 0.00 0.00 0.00 64 1015.3
20260901173916 91 220 1.0 2.0 0.00 0.00 0.00 67 1015.4
20260901173410 91 203 1.0 1.0 0.00 0.00 0.00 65 1015.3
20260901172907 91 258 3.0 3.0 0.00 0.00 0.00 62 1015.2
20260901172401 91 227 1.0 1.0 0.00 0.00 0.00 64 1015.3
20260901171859 92 273 3.0 5.0 0.00 0.00 0.00 62 1015.5
20260901171358 92 248 1.0 2.0 0.00 0.00 0.00 62 1015.6
20260901170857 92 141 0.0 1.0 0.00 0.00 0.00 69 1015.3
20260901170352 91 227 3.0 3.0 0.00 0.00 0.00 66 1015.5
20260901165852 91 183 1.0 1.0 0.00 0.00 0.00 65 1015.3
20260901165346 91 174 1.0 1.0 0.00 0.00 0.00 70 1015.3
20260901164843 90 188 0.0 1.0 0.00 0.00 0.00 68 1015.6
20260901164338 91 249 3.0 3.0 0.00 0.00 0.00 64 1015.6
20260901163837 90 242 2.0 2.0 0.00 0.00 0.00 68 1015.7
20260901163333 90 240 2.0 2.0 0.00 0.00 0.00 65 1015.8
20260901162828 89 241 2.0 2.0 0.00 0.00 0.00 65 1015.8
20260901162327 89 245 2.0 3.0 0.00 0.00 0.00 68 1015.6
20260901161826 89 196 1.0 1.0 0.00 0.00 0.00 69 1015.6
20260901161321 89 196 1.0 1.0 0.00 0.00 0.00 70 1015.8
20260901160816 89 174 0.0 1.0 0.00 0.00 0.00 70 1015.9
20260901160312 88 164 0.0 1.0 0.00 0.00 0.00 69 1015.8
20260901155811 88 250 3.0 3.0 0.00 0.00 0.00 68 1015.8
20260901155306 88 229 2.0 2.0 0.00 0.00 0.00 71 1015.8
20260901154803 88 193 2.0 2.0 0.00 0.00 0.00 72 1015.7
20260901154256 88 197 1.0 2.0 0.00 0.00 0.00 72 1015.6
20260901153751 87 164 0.0 1.0 0.00 0.00 0.00 70 1015.7
20260901153251 87 261 2.0 2.0 0.00 0.00 0.00 71 1015.9
20260901152750 87 189 0.0 1.0 0.00 0.00 0.00 73 1016.1
20260901152249 88 181 1.0 1.0 0.00 0.00 0.00 71 1015.9
20260901151744 87 197 1.0 1.0 0.00 0.00 0.00 73 1015.9
20260901151244 86 230 2.0 2.0 0.00 0.00 0.00 73 1015.7
20260901150744 86 213 1.0 1.0 0.00 0.00 0.00 74 1015.9
20260901150242 85 163 0.0 1.0 0.00 0.00 0.00 77 1015.7
20260901145740 85 173 0.0 1.0 0.00 0.00 0.00 76 1016.0
20260901145240 85 228 1.0 2.0 0.00 0.00 0.00 77 1016.0
20260901144735 84 192 1.0 2.0 0.00 0.00 0.00 76 1015.9
20260901144231 84 201 1.0 1.0 0.00 0.00 0.00 77 1016.0
20260901143726 83 221 1.0 1.0 0.00 0.00 0.00 78 1015.9
20260901143222 82 207 1.0 2.0 0.00 0.00 0.00 79 1015.7
20260901142718 82 203 1.0 2.0 0.00 0.00 0.00 80 1016.1
20260901142217 81 206 2.0 2.0 0.00 0.00 0.00 81 1016.0
20260901141713 81 193 2.0 2.0 0.00 0.00 0.00 83 1016.0
20260901141207 80 253 2.0 2.0 0.00 0.00 0.00 82 1015.9
20260901140706 80 194 1.0 2.0 0.00 0.00 0.00 83 1016.0
20260901140204 79 211 2.0 2.0 0.00 0.00 0.00 84 1016.1
20260901135700 79 240 2.0 2.0 0.00 0.00 0.00 85 1016.0
20260901135154 79 234 1.0 2.0 0.00 0.00 0.00 86 1016.0
20260901134650 79 218 2.0 2.0 0.00 0.00 0.00 86 1016.0
20260901134145 78 237 2.0 2.0 0.00 0.00 0.00 86 1015.8
20260901133644 78 206 1.0 1.0 0.00 0.00 0.00 86 1016.1
20260901133143 78 197 1.0 1.0 0.00 0.00 0.00 87 1016.0
20260901132638 77 188 0.0 0.0 0.00 0.00 0.00 88 1016.2
20260901132138 77 207 0.0 0.0 0.00 0.00 0.00 90 1016.4
20260901131638 77 192 0.0 0.0 0.00 0.00 0.00 90 1016.1
20260901131132 76 188 0.0 0.0 0.00 0.00 0.00 90 1016.5
20260901130627 76 211 0.0 0.0 0.00 0.00 0.00 91 1016.4
20260901130126 76 190 0.0 0.0 0.00 0.00 0.00 91 1016.2
20260901125624 76 194 0.0 0.0 0.00 0.00 0.00 91 1016.1
20260901125119 76 190 0.0 0.0 0.00 0.00 0.00 91 1016.4
20260901124614 75 187 0.0 0.0 0.00 0.00 0.00 92 1016.1
20260901124109 75 191 0.0 0.0 0.00 0.00 0.00 92 1016.1
20260901123609 75 187 0.0 0.0 0.00 0.00 0.00 92 1016.1
20260901123108 75 186 0.0 0.0 0.00 0.00 0.00 93 1015.9
20260901122606 75 186 0.0 0.0 0.00 0.00 0.00 93 1015.8
20260901122101 74 188 0.0 0.0 0.00 0.00 0.00 93 1016.2
20260901121555 74 188 0.0 0.0 0.00 0.00 0.00 93 1015.9
20260901121050 74 188 0.0 0.0 0.00 0.00 0.00 94 1015.8
20260901120544 73 188 0.0 0.0 0.00 0.00 0.00 94 1015.8
20260901120041 73 204 0.0 0.0 0.00 0.00 0.00 95 1015.7
20260901115536 73 204 0.0 0.0 0.00 0.00 0.00 95 1015.6
20260901115033 73 204 0.0 0.0 0.00 0.00 0.00 95 1015.5
20260901114528 73 200 0.0 0.0 0.00 0.00 0.00 96 1015.6
20260901114027 73 201 0.0 0.0 0.00 0.00 0.00 96 1015.6
20260901113526 73 201 0.0 0.0 0.00 0.00 0.00 95 1015.5
20260901113022 73 201 0.0 0.0 0.00 0.00 0.00 95 1015.6
20260901112516 73 201 0.0 0.0 0.00 0.00 0.00 95 1015.8
20260901112011 73 201 0.0 0.0 0.00 0.00 0.00 95 1015.6
20260901111510 73 199 0.0 0.0 0.00 0.00 0.00 95 1015.6
20260901111008 73 200 0.0 0.0 0.00 0.00 0.00 95 1015.4
20260901110504 73 202 0.0 0.0 0.00 0.00 0.00 94 1015.3
20260901110000 73 204 0.0 0.0 0.00 0.00 0.00 95 1015.4
20260901105456 72 200 0.0 0.0 0.00 0.00 0.00 96 1015.1
20260901104955 72 200 0.0 0.0 0.00 0.00 0.00 97 1015.2
20260901104451 72 201 0.0 0.0 0.00 0.00 0.00 97 1014.9
20260901103951 72 201 0.0 0.0 0.00 0.00 0.00 97 1015.1
20260901103446 72 201 0.0 0.0 0.00 0.00 0.00 96 1015.1
20260901102942 72 202 0.0 0.0 0.00 0.00 0.00 96 1015.2
20260901102436 73 202 0.0 0.0 0.00 0.00 0.00 96 1015.1
20260901101931 73 202 0.0 0.0 0.00 0.00 0.00 96 1014.9
20260901101426 73 202 0.0 0.0 0.00 0.00 0.00 95 1015.1
20260901100926 73 203 0.0 0.0 0.00 0.00 0.00 95 1015.0
20260901100420 73 203 0.0 0.0 0.00 0.00 0.00 95 1015.1
20260901095914 73 203 0.0 0.0 0.00 0.00 0.00 95 1015.1
20260901095413 73 203 0.0 0.0 0.00 0.00 0.00 94 1015.0
20260901094911 73 203 0.0 0.0 0.00 0.00 0.00 94 1015.0
20260901094406 73 203 0.0 0.0 0.00 0.00 0.00 94 1015.2
20260901093901 74 203 0.0 0.0 0.00 0.00 0.00 93 1014.9
20260901093400 74 203 0.0 0.0 0.00 0.00 0.00 93 1014.9
20260901092856 74 203 0.0 0.0 0.00 0.00 0.00 92 1014.9
20260901092356 74 202 0.0 0.0 0.00 0.00 0.00 92 1015.0
20260901091853 74 204 1.0 1.0 0.00 0.00 0.00 93 1014.9
20260901091353 74 204 0.0 0.0 0.00 0.00 0.00 93 1014.8
20260901090847 74 204 1.0 1.0 0.00 0.00 0.00 92 1014.8
20260901090342 75 205 1.0 1.0 0.00 0.00 0.00 91 1014.9
20260901085838 75 207 1.0 1.0 0.00 0.00 0.00 91 1014.8
20260901085333 75 212 1.0 1.0 0.00 0.00 0.00 91 1014.8
20260901084830 75 218 1.0 1.0 0.00 0.00 0.00 91 1014.6
20260901084326 75 226 2.0 2.0 0.00 0.00 0.00 90 1014.8
20260901083821 75 218 2.0 2.0 0.00 0.00 0.00 90 1014.8
20260901083321 75 228 2.0 2.0 0.00 0.00 0.00 91 1014.6
20260901082819 75 232 1.0 1.0 0.00 0.00 0.00 91 1014.8
20260901082315 75 238 2.0 2.0 0.00 0.00 0.00 90 1014.8
20260901081810 75 218 2.0 2.0 0.00 0.00 0.00 90 1014.7
20260901081309 75 233 2.0 2.0 0.00 0.00 0.00 90 1014.9
20260901080805 75 232 2.0 2.0 0.00 0.00 0.00 90 1014.6
20260901080304 75 222 2.0 2.0 0.00 0.00 0.00 90 1014.7
20260901075758 76 228 1.0 2.0 0.00 0.00 0.00 90 1014.6
20260901075254 76 204 1.0 1.0 0.00 0.00 0.00 89 1014.8
20260901074748 76 224 1.0 2.0 0.00 0.00 0.00 90 1014.7
20260901074243 76 214 1.0 2.0 0.00 0.00 0.00 90 1014.6
20260901073739 76 200 1.0 1.0 0.00 0.00 0.00 89 1014.7
20260901073234 76 226 1.0 1.0 0.00 0.00 0.00 89 1014.6
20260901072729 76 207 1.0 1.0 0.00 0.00 0.00 89 1014.6
20260901072224 76 199 2.0 2.0 0.00 0.00 0.00 88 1014.7
20260901071719 77 200 2.0 2.0 0.00 0.00 0.00 88 1014.6
20260901071219 77 236 2.0 2.0 0.00 0.00 0.00 88 1014.7
20260901070712 77 242 2.0 2.0 0.00 0.00 0.00 87 1014.8
20260901070208 77 197 1.0 1.0 0.00 0.00 0.00 87 1014.7
20260901065707 77 227 2.0 2.0 0.00 0.00 0.00 87 1014.8
20260901065202 76 199 1.0 1.0 0.00 0.00 0.00 88 1014.8
20260901064659 76 232 1.0 1.0 0.00 0.00 0.00 90 1014.8
20260901064155 75 191 0.0 0.0 0.00 0.00 0.00 91 1014.9
20260901063652 75 179 0.0 0.0 0.00 0.00 0.00 92 1014.8
20260901063147 75 197 0.0 0.0 0.00 0.00 0.00 93 1014.9
20260901062643 75 177 0.0 0.0 0.00 0.00 0.00 93 1015.0
20260901062139 75 176 0.0 0.0 0.00 0.00 0.00 93 1015.1
20260901061635 75 180 0.0 0.0 0.00 0.00 0.00 94 1014.9
20260901061134 75 182 0.0 0.0 0.00 0.00 0.00 95 1015.0
20260901060629 75 178 0.0 0.0 0.00 0.00 0.00 95 1014.8
20260901060125 75 177 0.0 0.0 0.00 0.00 0.00 95 1015.1
20260901055620 75 177 0.0 0.0 0.00 0.00 0.00 96 1015.1
20260901055116 75 177 0.0 0.0 0.00 0.00 0.00 96 1015.4
20260901054613 75 177 0.0 0.0 0.00 0.00 0.00 96 1015.2
20260901054109 75 177 0.0 0.0 0.00 0.00 0.00 96 1015.1
20260901053605 75 176 0.0 0.0 0.00 0.00 0.00 96 1014.9
20260901053101 75 176 0.0 0.0 0.00 0.00 0.00 96 1015.1
20260901052600 75 176 0.0 0.0 0.00 0.00 0.00 96 1014.9
20260901052055 75 176 0.0 0.0 0.00 0.00 0.00 96 1014.8
20260901051550 75 176 0.0 0.0 0.00 0.00 0.00 96 1014.9
20260901051049 75 176 0.0 0.0 0.00 0.00 0.00 96 1014.7
20260901050544 75 176 0.0 0.0 0.00 0.00 0.00 96 1015.0
20260901050039 75 176 0.0 0.0 0.00 0.00 0.00 96 1014.7
20260901045534 75 176 0.0 0.0 0.00 0.00 0.00 96 1014.7
20260901045029 75 176 0.0 0.0 0.00 0.00 0.00 96 1014.7
20260901044525 75 176 0.0 0.0 0.00 0.00 0.00 96 1014.9
20260901044020 75 176 0.0 0.0 0.00 0.00 0.00 96 1014.7
20260901043516 76 176 0.0 0.0 0.00 0.00 0.00 96 1014.7
20260901043011 76 176 0.0 0.0 0.00 0.00 0.00 96 1014.6
20260901042511 76 176 0.0 0.0 0.00 0.00 0.00 96 1014.9
20260901042006 76 176 0.0 0.0 0.00 0.00 0.00 96 1014.9
20260901041501 76 176 0.0 0.0 0.00 0.00 0.00 95 1015.0
20260901040955 76 176 0.0 0.0 0.00 0.00 0.00 95 1014.7
20260901040450 76 176 0.0 0.0 0.00 0.00 0.00 95 1014.9
20260901035949 76 176 0.0 0.0 0.00 0.00 0.00 95 1014.9
20260901035448 77 176 0.0 0.0 0.00 0.00 0.00 94 1014.9
20260901034946 77 176 0.0 0.0 0.00 0.00 0.00 94 1015.1
20260901034441 77 176 0.0 0.0 0.00 0.00 0.00 94 1015.0
20260901033936 77 176 0.0 0.0 0.00 0.00 0.00 94 1014.9
20260901033435 77 176 0.0 0.0 0.00 0.00 0.00 93 1015.3
20260901032934 77 176 0.0 0.0 0.00 0.00 0.00 93 1015.3
20260901032434 77 176 0.0 0.0 0.00 0.00 0.00 93 1014.9
20260901031929 77 176 0.0 0.0 0.00 0.00 0.00 93 1015.3
20260901031425 77 176 0.0 0.0 0.00 0.00 0.00 93 1015.1
20260901030924 77 176 0.0 0.0 0.00 0.00 0.00 93 1015.1
20260901030420 77 176 0.0 0.0 0.00 0.00 0.00 93 1015.1
20260901025919 78 176 0.0 0.0 0.00 0.00 0.00 93 1015.0
20260901025414 78 176 0.0 0.0 0.00 0.00 0.00 92 1015.0
20260901024908 78 176 0.0 0.0 0.00 0.00 0.00 92 1015.1
20260901024408 78 176 0.0 0.0 0.00 0.00 0.00 92 1015.2
20260901023907 78 176 0.0 0.0 0.00 0.00 0.00 92 1015.1
20260901023401 78 176 0.0 0.0 0.00 0.00 0.00 91 1015.1
20260901022856 78 176 0.0 0.0 0.00 0.00 0.00 91 1015.1
20260901022353 78 176 0.0 0.0 0.00 0.00 0.00 91 1015.1
20260901021847 78 176 0.0 0.0 0.00 0.00 0.00 91 1014.9
20260901021343 79 176 0.0 0.0 0.00 0.00 0.00 90 1015.3
20260901020837 79 176 0.0 0.0 0.00 0.00 0.00 89 1015.0
20260901020333 79 176 0.0 0.0 0.00 0.00 0.00 88 1014.9
20260901015832 79 176 0.0 0.0 0.00 0.00 0.00 88 1015.0
20260901015329 79 176 0.0 0.0 0.00 0.00 0.00 88 1015.0
20260901014828 79 176 0.0 0.0 0.00 0.00 0.00 87 1015.1
20260901014325 80 176 0.0 0.0 0.00 0.00 0.00 87 1014.9
20260901013820 80 176 0.0 0.0 0.00 0.00 0.00 86 1014.7
20260901013315 80 176 0.0 0.0 0.00 0.00 0.00 86 1014.8
20260901012811 80 176 0.0 0.0 0.00 0.00 0.00 86 1014.8
20260901012306 80 176 0.0 0.0 0.00 0.00 0.00 86 1014.5
20260901011801 80 176 0.0 0.0 0.00 0.00 0.00 85 1014.6
20260901011256 80 176 0.0 0.0 0.00 0.00 0.00 84 1014.5
20260901010755 81 176 0.0 0.0 0.00 0.00 0.00 84 1014.6
20260901010250 81 176 0.0 0.0 0.00 0.00 0.00 83 1014.5
20260901005749 81 176 0.0 0.0 0.00 0.00 0.00 82 1014.2
20260901005244 81 176 0.0 0.0 0.00 0.00 0.00 81 1014.3
20260901004744 82 176 0.0 0.0 0.00 0.00 0.00 81 1014.3
20260901004239 82 176 0.0 0.0 0.00 0.00 0.00 80 1014.2
20260901003733 82 176 0.0 0.0 0.00 0.00 0.00 80 1014.2
20260901003233 82 176 0.0 0.0 0.00 0.00 0.00 79 1014.2